TITAN 4B R/B

Satellite information

Favourite Embed

Satellite Type and Status

ROCKET BODYIN ORBIT

Key statistics

Satellite TITAN 4B R/B at a glance.

Uptime

9198

Days in orbit

Revolutions

≈ 15.1

Per day

Orbit

LEO

Low Earth Orbit

Inclination

68.0

Latest

Satellite identification and parameters

Extended collection of information and parameters for TITAN 4B R/B.

Object identification

Identified? True

Debris? False

Object name: TITAN 4B R/B

International designator: 2000-047B

Object number (NORAD): 26474

Object ID (CCSDS): 26474

Country: UNITED STATES OF AMERICA (US)

Current information (Y/N): Y

RCS size: LARGE

Orbital parameters

Period: 95.478 minutes

Inclination: 67.9904 deg

SMA: 6919.844 km

Apoapsis: 572.252 km

Periapsis: 511.166 km

RAAN: 67.6124 deg

Eccentricy: 0.00441382

Argument of periapsis: 202.3831 deg

Mean anomaly: 157.5393 deg

Mean motion: 15.08197858 rev/day

Mean motion (dot): 0.00006603 rev/day2

B* drag term: 0.0004246253 1/REarth

Two-line elements (TLE)

Creation date: Oct. 23, 2025, 2:46 a.m.

Reference frame: TEME

Reference center: EARTH

Epoch: Oct. 22, 2025, 9:17 p.m. UTC

TLE line 0: 0 TITAN 4B R/B

TLE line 1: 1 26474U 00047B 25295.88733021 .00006603 00000-0 42463-3 0 9996

TLE line 2: 2 26474 67.9904 67.6124 0044138 202.3831 157.5393 15.08197858372125

Live tracking on map

Real-time ground track for satellite TITAN 4B R/B.

In-orbit conjunctions

A list of the most updated potential collisions computed for object TITAN 4B R/B.

Target Orbit TCA Probability of collision Miss distance Type
CZ-6A DEB SSO 2024-12-19 16:42:06 0.0002804116 120.0 (m) DEBRIS
CZ-6A DEB LEO 2024-11-22 21:51:05 0.0002860624 659.0 (m) DEBRIS
SL-24 R/B SSO 2024-11-14 12:01:21 0.002685295 604.0 (m) ROCKET BODY

Associated space launch

The Onyx (formerly known as Lacrosse) satellites are terrestrial radar imaging reconnaissance satellite operated by the National Reconnaissance Office (NRO).

TITAN 4B R/B was lifted into orbit during the mission ‘Titan 403B | NROL-11’, on board a Titan 403B space rocket.

The launch took place on Aug. 17, 2000, 11:45 p.m. from Space Launch Complex 4E.

For more information about the launch, click the button.

Launch to space Titan 403B | NROL-11
Titan 403B | NROL-11

Agency: N/A

Status: Launch Successful

Launch date: Aug. 17, 2000, 11:45 p.m. UTC

Rocket: Titan 403B

Launch pad: Space Launch Complex 4E

Location: Vandenberg SFB, CA, USA

...

Latest news about this satellite

There are no fresh news available about this satellite. Check back as we update our databases every day.


Newsletter sign-up

Weekly statistics, charts and insights to help you stay on top of the space industry.